Miscellaneous Local Product
Issued by NWS North Platte, NE

Home | Current Version | Previous Version | Text Only | Print | Product List | Glossary On
Versions: 1 2 3 4 5 6 7 8 9 10 11 12 13 14 15 16 17 18 19 20 21 22 23 24 25 26 27 28 29 30 31 32 33 34 35 36 37 38 39 40 41 42 43 44 45 46 47 48 49 50
000
AXUS43 KLBF 310010
MISLBF


WESTERN AND NORTH CENTRAL NEBRASKA HOURLY WEATHER ROUNDUP
NATIONAL WEATHER SERVICE NORTH PLATTE NE
700 PM CDT SAT AUG 30 2014

***STATIONS NOT REPORTING VARIABLES SUCH AS SKY/WEATHER OR
PRESSURE ARE PROVIDED BY THE NEBRASKA DEPARTMENT OF
ROADS...RAWS...AND APRS NETWORKS...AND ARE NOT UNDER
NATIONAL WEATHER SERVICE QUALITY CONTROL***

...OBSERVATIONS IN AND NEAR THE EASTERN PANHANDLE OF NEBRASKA...

CITY           SKY/WX    TMP DP  RH WIND       PRES   REMARKS
PINE RIDGE     SUNNY     84  55  36 S16G26    29.69F
CHADRON        MOSUNNY   86  49  27 S12       29.66F
ALLIANCE       SUNNY     86  45  23 S25G31    29.77F
SIDNEY         MOSUNNY   87  43  21 S14       29.86S
WHITECLAY        N/A     86  55  34 S16         N/A
RUSHVILLE        N/A     90  45  20 S28         N/A
GORDON           N/A     91  55  29 S24         N/A
LISCO            N/A     85  41  20 S10         N/A
BIG SPRINGS      N/A     87  56  34 S9          N/A
$$

...OBSERVATIONS IN NORTH CENTRAL NEBRASKA...

CITY           SKY/WX    TMP DP  RH WIND       PRES   REMARKS
VALENTINE      SUNNY     84  62  47 S17G25    29.75F
THEDFORD       SUNNY     84  60  44 S17       29.80F
AINSWORTH      SUNNY     79  63  57 SE14G22   29.79F
O`NEILL        SUNNY     78  64  62 S15G21    29.83S
ORD            SUNNY     80  65  59 S12       29.83F
BROKEN BOW     SUNNY     81  64  56 S16G23    29.84F
SPRINGVIEW       N/A     81  65  58 S9G18       N/A
ROSE             N/A     82  70  65 E16         N/A
NEWPORT          N/A     79  66  63 S14         N/A
COMSTOCK         N/A     85  70  59 S14         N/A
CHAMBERS         N/A     78  66  66 S3G12       N/A
EWING            N/A     76  67  72 S3          N/A
$$

...OBSERVATIONS IN SOUTHWEST NEBRASKA AND FAR NORTHEAST COLORADO...

CITY           SKY/WX    TMP DP  RH WIND       PRES   REMARKS
WRAY             N/A     88  48  24 S13G18    29.84F
HOLYOKE        FAIR      86  50  28 S9        29.83S
IMPERIAL       SUNNY     87  50  27 S14       29.82F
OGALLALA       SUNNY     85  52  31 S12G18    29.79F
NORTH PLATTE   SUNNY     83  61  47 SE9       29.81F
MCCOOK         SUNNY     88  55  32 S9        29.82S
LEXINGTON      SUNNY     83  65  53 SE10      29.83F
PAXTON           N/A     88  57  34 S12         N/A
SUTHERLAND       N/A     90  57  32 S3          N/A
BRADY            N/A     84  64  51 CALM        N/A
GOTHENBURG       N/A     84  60  44 SE8         N/A
CALLAWAY         N/A     80  68  67 SE12        N/A
$$

...SOME WEATHER OBSERVATIONS FROM AROUND THE REGION...

CITY           SKY/WX    TMP DP  RH WIND       PRES   REMARKS
DENVER         PTSUNNY   79  41  25 NW7       29.95R
LARAMIE        CLOUDY    59  45  59 W7        30.09R
CHEYENNE       CLOUDY    68  46  45 W25G37    30.04S
SCOTTSBLUFF    PTSUNNY   85  42  22 S23G29    29.77F
RAPID CITY     MOSUNNY   80  54  40 SE8       29.64F
PIERRE         SUNNY     77  62  59 SE20      29.71F
WINNER         FAIR      81  61  50 SE17G28   29.75F
SIOUX FALLS    SUNNY     70  61  73 S9        29.85F
OMAHA          SUNNY     80  64  58 SE8       29.86F
GRAND ISLAND   SUNNY     81  66  60 SE8       29.86F
KANSAS CITY    PTCLDY    83  67  58 SW5       29.89R
WICHITA        MOSUNNY   90  55  30 S8        29.87S
HAYS           SUNNY     90  54  29 S16       29.86S
LIBERAL        MOSUNNY   91  54  27 S20G29    29.89S
GOODLAND       SUNNY     88  46  23 S9        29.86F
$$



USA.gov is the U.S. government's official web portal to all federal, state and local government web resources and services.